EHI
0 0 0 0 0 0 0 0 0 0 0 0 0 0 0 0 0 1 1 0 0 0 1 3 6 8 9 10 9 7 6 4 2 2 1 0 0 0 0 0 0 0 0
0 0 0 0 0 0 0 0 0 0 0 0 0 0 0 0 0 1 1 0 0 0 0 1 3 5 8 10 8 7 5 3 1 1 0 0 0 0 0 0 0 0 0
0 0 0 0 0 0 0 0 0 0 0 0 0 0 0 0 0 1 1 0 0 0 0 0 1 2 5 8 8 6 3 1 0 0 0 0 0 0 0 0 0 0 0
0 0 0 0 0 0 0 0 0 0 0 0 0 0 0 0 0 0 0 0 0 0 0 0 0 1 3 5 6 4 2 1 1 0 0 0 0 0 0 0 0 0 0
0 0 0 0 0 0 0 0 1 1 0 0 0 0 0 0 0 0 0 0 0 0 0 0 0 0 2 3 3 3 2 3 2 1 0 0 0 0 0 0 0 0 0
0 0 0 0 0 0 0 1 2 2 1 0 0 0 0 0 0 0 0 0 0 0 0 0 0 0 1 1 1 1 1 2 2 1 0 0 0 0 0 0 0 0 0
0 0 0 0 0 0 0 1 2 2 1 0 0 1 1 0 0 0 0 0 0 0 0 0 0 0 0 0 0 0 0 1 1 0 0 0 0 0 0 0 0 0 0
0 0 0 0 0 0 0 0 1 1 1 0 1 2 2 1 0 0 0 0 0 0 0 0 0 0 0 0 0 0 0 0 0 0 0 0 0 0 0 1 0 0 0
0 0 0 0 0 0 0 0 0 0 0 0 1 2 2 1 0 0 0 0 0 0 0 0 0 0 0 0 0 0 1 0 0 0 0 0 0 0 0 0 0 0 0
0 0 0 0 0 0 0 0 0 0 0 0 1 1 1 1 0 0 0 0 0 0 0 0 0 0 0 0 0 0 0 0 0 0 0 0 0 0 0 0 0 0 0
0 0 0 0 0 0 0 0 0 0 0 0 0 0 0 0 0 0 0 0 0 0 0 0 0 0 0 0 0 0 0 0 0 0 0 0 0 0 0 0 0 0 0
0 0 0 0 0 0 0 0 0 0 0 0 0 0 0 0 0 0 0 0 0 0 1 1 1 0 0 0 0 0 0 0 0 0 0 0 0 0 0 0 0 0 0
0 0 0 0 0 0 0 0 0 0 0 0 0 0 0 0 0 0 0 0 0 0 1 2 1 0 0 0 0 0 0 0 0 0 0 0 0 0 0 0 0 0 0
0 0 0 0 0 0 0 0 0 0 0 0 0 0 0 0 0 0 0 0 0 0 1 1 1 0 0 0 0 0 0 0 0 0 0 0 0 0 0 0 0 0 0
0 0 0 0 0 0 0 0 0 0 0 0 0 0 0 0 0 0 1 0 0 0 0 0 0 0 0 0 0 0 0 0 0 0 0 0 0 0 0 0 0 0 0
0 0 0 0 0 0 0 0 0 0 0 0 0 0 0 0 0 0 0 0 0 0 0 0 0 0 0 0 0 0 0 0 0 0 0 0 0 0 0 0 0 0 0
0 0 0 0 0 0 0 0 0 0 0 0 0 0 0 0 0 0 0 0 0 0 0 0 0 0 0 0 0 0 0 0 0 0 0 0 0 0 0 0 0 0 0
0 0 0 0 0 0 0 0 0 0 0 0 0 0 0 0 0 0 0 0 0 0 0 0 0 0 0 0 0 0 0 0 0 0 0 0 0 0 0 0 0 0 0
0 0 0 0 0 0 0 0 0 0 0 0 0 0 0 0 0 0 0 0 0 0 0 0 0 0 0 0 0 0 0 0 0 0 0 0 0 0 0 0 0 1 1
0 0 0 0 0 0 0 0 0 0 0 0 0 0 0 0 0 0 0 0 0 0 0 0 0 0 0 0 0 0 0 0 0 0 0 0 0 0 0 0 0 0 0
0 0 0 0 0 0 0 0 0 0 0 0 0 0 0 0 0 0 0 0 0 0 0 0 0 0 0 0 0 0 0 0 0 0 0 0 0 0 0 0 0 0 0
0 0 0 0 0 0 0 0 0 0 0 0 0 0 0 0 0 0 0 0 0 0 0 0 0 0 0 0 0 0 0 0 0 0 0 0 0 0 0 0 0 0 0
0 0 0 0 0 0 0 0 0 0 0 0 0 0 0 0 0 0 0 0 0 0 0 0 0 0 0 0 0 0 0 0 0 0 0 0 0 0 0 0 0 0 0
0 0 0 0 0 0 0 0 0 0 0 0 0 0 0 0 0 0 0 0 0 0 0 0 0 0 0 0 0 0 0 0 0 0 0 0 0 0 0 0 0 0 0
0 0 0 0 0 0 0 0 0 0 0 0 0 0 0 0 0 0 0 0 0 0 0 0 0 0 0 0 0 0 0 0 0 0 0 0 0 0 0 0 0 0 0
0 0 0 0 0 0 0 0 0 0 0 0 0 0 0 0 0 0 0 0 0 0 0 0 0 0 0 0 0 0 0 0 0 0 0 0 0 0 0 0 0 0 0
Wind_Speed
3 4 8 8 8 8 8 8 8 8 8 8 8 8 8 7 7 6 6 5 5 5 5 5 5 6 7 7 8 8 8 9 9 9 8 8 8 8 8 8 7 5 8
5 5 9 9 8 8 8 7 7 7 7 7 7 7 7 6 6 6 5 5 4 4 4 4 4 4 5 5 6 6 6 7 7 8 8 7 7 7 8 7 6 4 7
6 5 6 9 8 8 8 7 7 7 7 6 6 6 6 5 5 5 4 4 4 4 3 3 3 3 3 4 4 5 5 5 6 7 6 3 3 6 7 6 6 6 6
7 5 5 8 8 8 7 7 7 7 6 6 6 6 5 5 4 4 4 3 3 3 3 3 3 3 2 2 3 3 4 4 5 7 3 2 2 6 6 6 6 6 6
5 4 5 9 8 8 7 7 7 7 6 6 6 6 5 5 4 4 3 3 3 3 3 2 2 2 2 1 1 2 3 3 5 5 3 2 1 4 6 6 6 5 6
3 3 3 9 8 8 8 8 7 7 7 6 6 6 6 5 5 4 4 3 3 3 3 3 2 3 2 1 0 2 2 3 5 3 2 2 1 4 6 6 6 6 5
1 0 2 7 8 8 8 8 8 8 8 7 7 7 7 7 6 5 5 4 4 3 3 3 3 3 3 2 1 1 1 2 3 3 2 1 1 4 6 6 6 6 5
4 3 3 4 6 8 9 9 9 9 9 9 9 9 8 8 7 7 7 6 5 5 4 4 4 5 4 3 2 1 1 1 3 3 2 1 3 5 6 6 6 5 5
7 5 4 4 4 6 8 9 10 11 11 11 11 10 10 9 9 9 8 7 7 7 6 6 5 5 5 5 3 2 1 2 2 2 3 2 4 5 5 6 6 6 5
7 6 6 6 6 5 5 9 10 11 12 12 12 11 11 11 10 10 9 9 9 8 8 7 7 6 6 5 5 3 1 2 2 2 1 3 5 5 5 5 5 6 5
7 5 5 6 6 6 5 7 8 9 10 10 10 12 11 6 5 6 9 10 11 10 9 9 8 7 7 5 5 4 0 1 1 2 2 5 6 6 5 5 5 5 6
7 6 5 5 5 5 5 4 4 4 4 4 4 5 4 4 5 7 7 12 13 12 11 10 10 8 5 1 2 2 0 1 1 2 3 7 7 6 6 5 5 5 6
4 6 6 5 5 5 3 3 3 3 3 4 4 4 3 3 3 4 3 5 6 8 6 6 5 3 2 2 1 1 1 1 1 2 3 7 7 7 6 6 6 6 6
5 6 6 6 5 5 4 3 3 3 2 3 4 4 2 2 3 3 4 4 4 3 4 4 3 4 3 3 3 3 3 2 2 2 3 7 8 8 8 7 7 6 6
6 7 7 6 5 5 4 4 4 3 3 3 3 3 3 3 4 4 4 4 4 4 4 4 4 5 4 4 4 4 4 4 4 4 3 7 8 9 9 8 8 8 7
7 7 7 7 6 5 4 4 4 4 4 3 3 4 4 4 4 4 4 4 4 4 4 5 5 4 4 4 4 5 5 5 5 5 4 5 9 9 8 9 9 9 8
6 6 7 7 6 7 6 6 4 4 4 4 3 4 4 4 4 4 3 4 4 4 5 4 4 3 3 4 4 5 5 5 5 6 5 4 4 8 9 9 10 10 9
6 7 7 8 8 8 7 6 5 4 4 4 4 3 4 4 4 3 3 4 4 3 4 4 4 4 4 3 3 3 3 4 6 6 5 5 4 4 6 9 9 9 10
6 6 7 8 8 8 8 6 5 4 4 4 3 3 4 4 4 3 3 3 3 3 4 5 4 4 3 3 3 3 3 3 4 5 6 6 6 5 4 7 10 10 10
6 6 7 8 8 8 6 5 4 4 4 3 3 4 4 4 4 3 3 4 3 3 4 4 4 4 3 3 3 3 2 2 3 4 6 6 5 6 5 5 5 7 10
6 7 7 8 8 7 5 5 5 5 5 4 4 5 5 4 4 3 3 3 3 4 5 5 4 4 4 3 2 1 2 1 2 3 4 4 6 6 6 6 5 4 4
6 7 7 7 8 7 5 4 3 4 4 4 4 5 5 5 4 4 3 3 3 4 5 5 4 3 3 5 4 2 1 2 2 2 3 5 6 5 6 7 6 6 5
7 7 7 7 7 7 7 4 5 3 3 3 5 5 5 5 5 4 4 3 4 4 4 5 6 6 4 4 4 4 4 4 1 1 2 4 5 5 5 5 7 7 7
6 6 6 7 7 7 6 5 6 5 5 5 5 5 6 5 5 4 4 4 4 4 5 6 6 5 5 4 4 3 2 3 3 1 1 2 4 5 6 6 7 7 7
6 6 6 6 6 6 6 6 5 5 4 5 5 6 6 5 5 5 4 3 4 4 5 6 5 6 6 5 5 4 3 2 2 3 2 2 2 3 5 6 5 6 7
5 5 5 6 6 6 7 6 6 7 7 7 7 7 6 5 4 7 5 4 4 3 5 5 6 7 7 7 5 5 5 4 5 4 3 3 3 2 3 4 5 5 6
Wind_Direction
193 189 179 162 159 156 154 152 148 144 144 143 141 140 139 138 137 136 135 132 129 123 116 107 101 97 94 91 89 89 89 90 90 90 91 90 97 110 114 110 103 97 102
158 171 174 164 164 164 161 158 157 155 153 152 150 149 146 144 143 141 140 139 137 133 129 125 118 110 103 98 94 90 89 93 99 97 92 88 96 110 117 116 112 111 108
143 159 167 167 169 170 169 166 166 164 163 161 159 158 156 154 151 149 147 146 146 145 144 146 141 135 119 103 91 85 81 91 110 113 99 76 92 115 119 123 122 120 117
149 153 165 174 173 176 177 177 177 176 176 176 175 173 170 167 163 161 157 157 158 162 163 165 169 166 147 109 83 77 75 84 119 122 105 83 91 117 119 123 125 124 121
150 151 175 180 181 184 186 187 188 190 191 191 190 188 186 184 180 179 179 178 178 185 190 189 199 200 194 136 68 59 65 88 119 117 109 90 78 127 123 119 118 121 124
145 154 193 191 194 196 197 198 200 202 203 205 206 205 204 204 202 201 204 202 201 207 214 215 225 228 233 234 25 45 55 96 106 113 119 118 121 137 129 122 124 124 124
118 143 245 212 210 212 213 213 214 216 217 219 220 220 219 219 218 217 218 219 220 224 229 232 244 244 246 253 287 17 45 112 128 140 145 153 191 146 130 128 126 125 123
39 20 345 272 248 234 230 228 226 226 228 230 230 229 229 228 226 226 225 226 227 232 237 239 246 251 254 263 275 315 19 84 141 166 165 180 192 151 135 129 124 119 117
38 17 1 347 328 299 275 258 245 239 237 236 235 235 235 233 231 230 230 231 232 233 237 242 244 250 256 262 269 272 306 106 141 165 178 194 197 160 142 134 126 117 108
42 24 8 355 354 350 330 305 285 267 256 247 242 239 239 237 236 235 234 235 237 237 238 241 245 248 254 260 266 263 227 108 150 183 195 212 202 170 153 142 135 126 115
25 12 8 359 353 347 334 330 320 301 286 275 257 250 245 236 234 239 240 237 240 242 242 242 244 248 252 260 270 272 216 136 183 207 213 224 203 181 168 159 149 140 130
8 356 355 347 339 336 334 329 317 314 309 298 281 266 250 231 226 232 240 244 243 242 243 243 243 247 251 237 285 308 75 194 217 222 220 226 212 194 181 174 167 155 143
352 350 348 342 335 332 322 317 311 313 310 308 299 282 265 249 235 230 221 248 252 250 240 242 242 226 206 201 210 212 219 221 226 234 230 232 221 206 194 187 183 172 158
355 347 341 338 336 335 331 317 304 310 307 305 294 284 266 255 242 228 218 218 225 234 223 211 208 209 210 213 216 222 226 225 226 225 238 240 230 216 203 197 193 187 175
352 342 337 336 335 333 331 321 324 307 297 290 285 282 264 249 247 241 231 220 219 221 223 215 210 210 211 213 219 223 227 226 226 224 230 241 234 222 211 203 199 197 191
343 336 332 335 335 335 327 314 302 295 293 292 283 275 266 252 247 243 235 227 224 220 218 215 212 209 212 207 219 221 225 223 221 222 218 232 232 219 210 206 204 202 199
329 328 330 332 342 335 324 313 309 296 293 290 285 282 275 262 254 248 241 236 231 222 220 216 206 198 209 210 222 224 223 224 219 217 213 211 218 217 209 206 205 205 204
330 330 328 337 335 328 322 312 305 299 295 287 285 285 283 276 260 248 241 239 234 225 220 214 200 201 212 210 217 228 225 223 224 215 207 204 201 204 208 206 202 203 207
330 327 329 331 332 329 323 316 308 304 300 294 291 287 285 281 266 246 242 242 234 227 224 224 199 192 200 214 224 229 228 225 228 218 205 203 198 193 192 205 204 200 205
328 328 330 332 334 332 327 325 321 319 315 310 303 297 297 289 278 253 243 242 232 226 226 219 209 190 186 198 236 250 244 237 227 218 211 202 196 196 191 191 196 204 207
332 336 335 337 335 340 340 337 331 327 321 319 313 309 306 300 290 264 252 242 229 226 227 219 210 205 199 167 168 269 289 249 226 223 210 197 198 197 187 190 191 189 204
327 330 333 335 333 337 336 322 303 300 300 298 307 316 313 311 304 289 258 245 233 230 232 222 204 194 199 173 164 151 277 304 262 219 201 202 202 187 192 197 191 192 191
326 327 331 329 330 333 336 331 326 324 316 330 333 330 323 317 307 296 286 264 244 226 228 220 204 196 197 193 177 161 177 211 252 279 220 209 197 191 196 190 196 196 194
313 319 325 328 330 334 340 347 350 347 336 321 318 315 319 320 318 311 298 280 262 243 234 226 212 203 190 193 193 196 181 161 164 215 281 228 205 202 199 200 201 199 195
312 320 324 332 336 340 344 346 344 342 325 316 324 332 338 338 336 335 320 302 282 261 247 237 220 209 202 195 183 173 179 181 161 163 207 225 219 211 201 200 197 197 197
315 323 332 339 336 342 345 348 351 347 342 346 349 349 345 341 341 350 341 328 307 282 261 248 232 219 214 207 198 183 172 174 186 178 183 199 217 218 203 197 197 197 196